Lafayette, CO

1:16 PM MST on February 20, 2017 (GMT -0700)
Erie Municipal Airport

Weather History for KEIK - February, 2012

Change the Weather History Date:

Sunday, February 26, 2012

  Actual Average (KBJC) Record (KBJC)
Temperature  
Mean Temperature 26 °F -  
Max Temperature 33 °F 42 °F 68 °F (1986)
Min Temperature 19 °F 23 °F 3 °F (2002)
Degree Days  
Heating Degree Days 39    
Moisture  
Dew Point 9 °F    
Average Humidity 46    
Maximum Humidity 86    
Minimum Humidity 18    
Precipitation  
Precipitation 0.00 in - - ()
Sea Level Pressure  
Sea Level Pressure 29.94 in    
Wind  
Wind Speed 19 mph (WNW)    
Max Wind Speed 34 mph    
Max Gust Speed 45 mph    
Visibility 10 miles    
Events      
Averages and records for this station are not official NWS values.
T = Trace of Precipitation, MM = Missing Value Source: NWS Daily Summary

Daily Weather History Graph

Daily Weather History Graph

Search for Another Location

Airport or City:

Trip Planner

Search our weather history database for the weather conditions in past years. The results will help you decide how hot, cold, wet, or windy it might be!

Date:

Astronomy

Feb. 26, 2012 Rise Set
Actual Time 6:38 AM MST 5:48 PM MST
Civil Twilight 6:11 AM MST 6:15 PM MST
Nautical Twilight 5:39 AM MST 6:46 PM MST
Astronomical Twilight 5:08 AM MST 7:18 PM MST
Moon 8:35 AM MST (2/26) 10:48 PM MST (2/26)
Length of Visible Light 12h 04m
Length of Day
11h 09m
Waxing Crescent, 21% of the Moon is Illuminated
Feb 26
Waxing Crescent
Feb 29
First Quarter
Mar 8
Full
Mar 14
Last Quarter
Mar 22
New

Hourly Weather History & Observations

Time (MST) Temp. Windchill Dew Point Humidity Pressure Visibility Wind Dir Wind Speed Gust Speed Precip Events Conditions
12:17 AM 32.0 °F 17.4 °F 8.6 °F 38% 29.77 in 10.0 mi West 31.1 mph 40.3 mph N/A   Unknown
12:37 AM 32.0 °F 17.2 °F 8.6 °F 38% 29.78 in 10.0 mi West 32.2 mph 42.6 mph N/A   Unknown
12:57 AM 32.0 °F 16.7 °F 6.8 °F 35% 29.79 in 10.0 mi WNW 34.5 mph 44.9 mph N/A   Unknown
1:17 AM 32.0 °F 17.6 °F 6.8 °F 35% 29.80 in 10.0 mi WNW 29.9 mph 42.6 mph N/A   Unknown
1:37 AM 32.0 °F 17.9 °F 6.8 °F 35% 29.81 in 10.0 mi WNW 28.8 mph 35.7 mph N/A   Unknown
1:57 AM 32.0 °F 18.4 °F 8.6 °F 38% 29.81 in 10.0 mi WNW 26.5 mph 35.7 mph N/A   Unknown
2:17 AM 32.0 °F 18.1 °F 8.6 °F 38% 29.82 in 10.0 mi WNW 27.6 mph 35.7 mph N/A   Unknown
2:37 AM 30.2 °F 16.8 °F 10.4 °F 44% 29.84 in 10.0 mi WNW 23.0 mph 34.5 mph N/A   Unknown
2:57 AM 30.2 °F 17.8 °F 10.4 °F 44% 29.84 in 10.0 mi WNW 19.6 mph 26.5 mph N/A   Unknown
3:17 AM 30.2 °F 18.5 °F 10.4 °F 44% 29.85 in 10.0 mi WNW 17.3 mph 23.0 mph N/A   Unknown
3:37 AM 30.2 °F 18.5 °F 10.4 °F 44% 29.86 in 10.0 mi WNW 17.3 mph 24.2 mph N/A   Unknown
4:17 AM 28.4 °F 19.1 °F 12.2 °F 51% 29.88 in 10.0 mi WNW 10.4 mph - N/A   Unknown
4:37 AM 28.4 °F 19.7 °F 10.4 °F 47% 29.89 in 10.0 mi WNW 9.2 mph - N/A   Unknown
4:57 AM 32.0 °F 23.0 °F 6.8 °F 35% 29.88 in 10.0 mi West 11.5 mph 19.6 mph N/A   Unknown
5:17 AM 30.2 °F 22.6 °F 10.4 °F 44% 29.88 in 10.0 mi WNW 8.1 mph - N/A   Unknown
5:37 AM 26.6 °F 20.0 °F 12.2 °F 55% 29.88 in 10.0 mi WNW 5.8 mph - N/A   Unknown
5:57 AM 26.6 °F 21.2 °F 10.4 °F 51% 29.88 in 10.0 mi WNW 4.6 mph - N/A   Unknown
6:17 AM 24.8 °F - 12.2 °F 59% 29.90 in 10.0 mi Calm Calm - N/A   Unknown
6:34 AM 26.6 °F - 10.4 °F 51% 29.90 in 10.0 mi Calm Calm - N/A   Unknown
7:13 AM 28.4 °F - 6.8 °F 40% 29.91 in 10.0 mi Calm Calm - N/A   Unknown
7:34 AM 30.2 °F 25.4 °F 3.2 °F 32% 29.93 in 10.0 mi SW 4.6 mph - N/A   Unknown
7:53 AM 32.0 °F 24.8 °F -0.4 °F 25% 29.94 in 10.0 mi West 8.1 mph 17.3 mph N/A   Unknown
8:14 AM 32.0 °F 21.2 °F -4.0 °F 21% 29.95 in 10.0 mi West 16.1 mph 32.2 mph N/A   Unknown
8:54 AM 33.8 °F 24.3 °F -5.8 °F 18% 29.99 in 10.0 mi WNW 13.8 mph 29.9 mph N/A   Unknown
9:37 PM 26.6 °F - 10.4 °F 51% 30.16 in 10.0 mi Calm Calm - N/A   Unknown
9:57 PM 23.0 °F - 12.2 °F 63% 30.17 in 10.0 mi Calm Calm - N/A   Unknown
10:17 PM 23.0 °F - 12.2 °F 63% 30.17 in 10.0 mi Calm Calm - N/A   Unknown
10:37 PM 23.0 °F - 12.2 °F 63% 30.18 in 10.0 mi Calm Calm - N/A   Unknown
10:57 PM 21.2 °F - 14.0 °F 74% 30.18 in 10.0 mi Calm Calm - N/A   Unknown
11:17 PM 19.4 °F 14.3 °F 15.8 °F 86% 30.18 in 10.0 mi NNE 3.5 mph - N/A   Unknown
11:57 PM 21.2 °F - 12.2 °F 68% 30.18 in 10.0 mi Calm Calm - N/A   Unknown